Regional Weather Roundup
Issued by NWS

Home | Current Version | Previous Version | Graphics & Text | Print | Product List | Glossary On
Versions: 1 2 3 4 5 6 7 8 9 10 11 12 13 14 15 16 17 18 19 20 21 22 23 24 25 26 27 28 29 30 31 32 33 34 35 36 37 38 39 40 41 42 43 44 45 46 47 48 49 50
000
ASUS43 KTOP 011759
RWRKS

WEATHER ROUNDUP FOR KANSAS
NATIONAL WEATHER SERVICE GOODLAND KS
100 PM CDT WED OCT 01 2014

NOTE:  "FAIR" INDICATES FEW OR NO CLOUDS BELOW 12,000 FEET WITH NO
SIGNIFICANT WEATHER AND/OR OBSTRUCTIONS TO VISIBILITY.

KSZ001>006-013>018-027>032-041>047-011900-
NORTHWEST KANSAS

CITY           SKY/WX    TMP DP  RH WIND       PRES   REMARKS
GOODLAND       MOSUNNY   71  44  37 N8        29.85F
6HR MIN TEMP:  46; 6HR MAX TEMP:  71;

HAYS           CLOUDY    66  59  77 NE7       29.77F
HILL CITY      FAIR      73  59  61 VRB3      29.78F
6HR MIN TEMP:  60; 6HR MAX TEMP:  73;

RUSSELL        CLOUDY    68  62  81 N7        29.75F
6HR MIN TEMP:  58; 6HR MAX TEMP:  68;

$$

KSZ061>065-074>080-084>089-011900-
SOUTHWEST KANSAS

CITY           SKY/WX    TMP DP  RH WIND       PRES   REMARKS
DODGE CITY     FAIR      79  46  31 NE12      29.77F
6HR MIN TEMP:  52; 6HR MAX TEMP:  79;

GARDEN CITY    FAIR      77  46  33 NE9       29.79F
6HR MIN TEMP:  51; 6HR MAX TEMP:  77;

GREAT BEND     FAIR      70  63  78 N8        29.76F
LIBERAL        FAIR      79  45  29 N9        29.80S
$$

KSZ066>073-081>083-090>101-011900-
SOUTHEAST KANSAS

CITY           SKY/WX    TMP DP  RH WIND       PRES   REMARKS
CHANUTE        PTSUNNY   83  69  62 SW16G24   29.75F
6HR MIN TEMP:  68; 6HR MAX TEMP:  83; 6HR PCP:  0.04;

COFFEYVILLE    FAIR      85  69  58 S16G24    29.74F
6HR MIN TEMP:  70; 6HR MAX TEMP:  86;

HUTCHINSON     FAIR      83  62  49 MISG      29.72F
6HR MIN TEMP:  66; 6HR MAX TEMP:  84;

MEDICINE LODGE   N/A     81  61  50 S9        29.70F
NEWTON         FAIR      81  63  54 SE5       29.75F
PARSONS        LGT RAIN  85  69  58 S13       29.76F
6HR MIN TEMP:  70; 6HR MAX TEMP:  85; 6HR PCP: TRACE;

WICHITA INTL   FAIR      85  64  49 S13       29.71F
6HR MIN TEMP:  69; 6HR MAX TEMP:  85;

WICHITA JABRA  FAIR      82  65  56 S10       29.72F
6HR MIN TEMP:  67; 6HR MAX TEMP:  83;

WINFIELD       CLOUDY    84  68  58 S16       29.73F
6HR MIN TEMP:  66; 6HR MAX TEMP:  84; 6HR PCP:  0.02;

$$

KSZ007>012-019>026-033>040-048>060-102>105-011900-
NORTHEAST KANSAS

CITY           SKY/WX    TMP DP  RH WIND       PRES   REMARKS
CONCORDIA      FAIR      73  66  78 E6        29.75F
6HR MIN TEMP:  60; 6HR MAX TEMP:  73;

EMPORIA        FAIR      80  68  66 S9        29.74F
6HR MIN TEMP:  67; 6HR MAX TEMP:  80;

LAWRENCE       FAIR      78  66  66 S8        29.75F
6HR MIN TEMP:  65; 6HR MAX TEMP:  78; 6HR PCP:  0.15;

MANHATTAN      FAIR      80  66  62 VRB5      29.73F
6HR MIN TEMP:  67; 6HR MAX TEMP:  80;

OLATHE IND     PTSUNNY   74  67  78 S5        29.78S
6HR MIN TEMP:  66; 6HR MAX TEMP:  76; 6HR PCP:  0.13;

OLATHE EXE     CLOUDY    73  66  78 S5        29.77F
6HR MIN TEMP:  66; 6HR MAX TEMP:  76; 6HR PCP:  0.07;

SALINA         FAIR      77  66  68 CALM      29.74F
6HR MIN TEMP:  63; 6HR MAX TEMP:  77; 6HR PCP: TRACE;

TOPEKA BILLARD FAIR      83  66  56 W7        29.74F
6HR MIN TEMP:  65; 6HR MAX TEMP:  84; 6HR PCP: TRACE;

TOPEKA FORBES  FAIR      81  65  58 S12       29.74F
6HR MIN TEMP:  66; 6HR MAX TEMP:  81; 6HR PCP:  0.01;

$$



USA.gov is the U.S. government's official web portal to all federal, state and local government web resources and services.